Time,TemperatureF,DewpointF,PressureIn,WindDirection,WindDirectionDegrees,WindSpeedMPH,WindSpeedGustMPH,Humidity,HourlyPrecipIn,Conditions,Clouds,dailyrainin,SoftwareType,DateUTC
2013-11-18 00:04:00,30.7,23.4,29.78,NW,315,28.0,34.0,74,0.00,,,0.00,meteohub,2013-11-18 06:04:00,
2013-11-18 00:09:00,30.7,23.7,29.78,NW,315,21.0,34.0,75,0.00,,,0.00,meteohub,2013-11-18 06:09:00,
2013-11-18 00:14:00,30.7,23.7,29.78,NW,315,28.0,31.0,75,0.00,,,0.00,meteohub,2013-11-18 06:14:00,
2013-11-18 00:19:00,30.9,23.9,29.78,NW,315,27.0,30.0,75,0.00,,,0.00,meteohub,2013-11-18 06:19:00,
2013-11-18 00:24:00,30.7,23.7,29.79,NW,315,24.0,30.0,75,0.00,,,0.00,meteohub,2013-11-18 06:24:00,
2013-11-18 00:29:00,30.9,23.9,29.79,NW,315,31.0,31.0,75,0.00,,,0.00,meteohub,2013-11-18 06:29:00,
2013-11-18 00:34:00,30.9,23.9,29.79,West,270,24.0,30.0,75,0.00,,,0.00,meteohub,2013-11-18 06:34:00,
2013-11-18 00:40:00,30.9,23.5,29.79,NW,315,28.0,32.0,74,0.00,,,0.00,meteohub,2013-11-18 06:40:00,
2013-11-18 00:45:00,30.9,23.5,29.79,NW,315,29.0,37.0,74,0.00,,,0.00,meteohub,2013-11-18 06:45:00,
2013-11-18 00:50:00,30.9,23.5,29.79,NW,315,32.0,37.0,74,0.00,,,0.00,meteohub,2013-11-18 06:50:00,
2013-11-18 00:55:00,30.9,23.4,29.79,NW,315,29.0,37.0,73,0.00,,,0.00,meteohub,2013-11-18 06:55:00,
2013-11-18 01:00:00,30.9,23.5,29.79,NW,315,36.0,36.0,74,0.00,,,0.00,meteohub,2013-11-18 07:00:00,
2013-11-18 01:05:00,30.9,23.4,29.80,NW,315,28.0,36.0,73,0.00,,,0.00,meteohub,2013-11-18 07:05:00,
2013-11-18 01:10:00,30.9,23.4,29.80,NW,315,31.0,36.0,73,0.00,,,0.00,meteohub,2013-11-18 07:10:00,
2013-11-18 01:15:00,30.9,23.4,29.80,West,270,34.0,35.0,73,0.00,,,0.00,meteohub,2013-11-18 07:15:00,
2013-11-18 01:20:00,30.9,23.4,29.80,NW,315,33.0,34.0,73,0.00,,,0.00,meteohub,2013-11-18 07:20:00,
2013-11-18 01:25:00,31.1,23.5,29.81,West,270,30.0,34.0,73,0.00,,,0.00,meteohub,2013-11-18 07:25:00,
2013-11-18 01:31:00,31.1,23.5,29.81,NW,315,27.0,34.0,73,0.00,,,0.00,meteohub,2013-11-18 07:31:00,
2013-11-18 01:36:00,31.1,23.5,29.81,NW,315,22.0,34.0,73,0.00,,,0.00,meteohub,2013-11-18 07:36:00,
2013-11-18 01:41:00,31.1,23.5,29.81,NW,315,26.0,30.0,73,0.00,,,0.00,meteohub,2013-11-18 07:41:00,
2013-11-18 01:46:00,31.1,23.5,29.82,West,270,17.0,30.0,73,0.00,,,0.00,meteohub,2013-11-18 07:46:00,
2013-11-18 01:51:00,30.9,23.5,29.82,West,270,23.0,30.0,74,0.00,,,0.00,meteohub,2013-11-18 07:51:00,
2013-11-18 01:56:00,30.7,23.4,29.82,NW,315,23.0,26.0,74,0.00,,,0.00,meteohub,2013-11-18 07:56:00,
2013-11-18 02:01:00,30.7,23.4,29.82,NW,315,21.0,27.0,74,0.00,,,0.00,meteohub,2013-11-18 08:01:00,
2013-11-18 02:06:00,30.7,23.4,29.82,West,270,24.0,27.0,74,0.00,,,0.00,meteohub,2013-11-18 08:06:00,
2013-11-18 02:11:00,30.9,23.4,29.82,NW,315,26.0,33.0,73,0.00,,,0.00,meteohub,2013-11-18 08:11:00,
2013-11-18 02:16:00,30.7,23.2,29.83,NW,315,25.0,33.0,73,0.00,,,0.00,meteohub,2013-11-18 08:16:00,
2013-11-18 02:22:00,30.7,23.2,29.83,NW,315,34.0,34.0,73,0.00,,,0.00,meteohub,2013-11-18 08:22:00,
2013-11-18 02:27:00,30.7,23.2,29.84,West,270,27.0,34.0,73,0.00,,,0.00,meteohub,2013-11-18 08:27:00,
2013-11-18 02:32:00,30.9,23.4,29.84,NW,315,27.0,34.0,73,0.00,,,0.00,meteohub,2013-11-18 08:32:00,
2013-11-18 02:37:00,30.4,22.8,29.84,NW,315,23.0,34.0,73,0.00,,,0.00,meteohub,2013-11-18 08:37:00,
2013-11-18 02:42:00,30.4,22.8,29.85,NW,315,25.0,33.0,73,0.00,,,0.00,meteohub,2013-11-18 08:42:00,
2013-11-18 02:47:00,30.2,22.6,29.84,NW,315,23.0,30.0,73,0.00,,,0.00,meteohub,2013-11-18 08:47:00,
2013-11-18 02:52:00,30.2,22.6,29.85,NW,315,25.0,30.0,73,0.00,,,0.00,meteohub,2013-11-18 08:52:00,
2013-11-18 02:57:00,30.2,22.6,29.85,NW,315,24.0,27.0,73,0.00,,,0.00,meteohub,2013-11-18 08:57:00,
2013-11-18 03:02:00,29.8,22.6,29.84,NW,315,30.0,30.0,74,0.00,,,0.00,meteohub,2013-11-18 09:02:00,
2013-11-18 03:07:00,29.8,22.6,29.84,NW,315,23.0,30.0,74,0.00,,,0.00,meteohub,2013-11-18 09:07:00,
2013-11-18 03:13:00,29.8,22.6,29.84,West,270,23.0,30.0,74,0.00,,,0.00,meteohub,2013-11-18 09:13:00,
2013-11-18 03:18:00,29.7,22.5,29.85,NW,315,23.0,30.0,74,0.00,,,0.00,meteohub,2013-11-18 09:18:00,
2013-11-18 03:23:00,29.5,22.3,29.85,NW,315,21.0,27.0,74,0.00,,,0.00,meteohub,2013-11-18 09:23:00,
2013-11-18 03:28:00,29.5,22.3,29.85,NW,315,21.0,27.0,74,0.00,,,0.00,meteohub,2013-11-18 09:28:00,
2013-11-18 03:33:00,29.5,22.3,29.85,NW,315,17.0,27.0,74,0.00,,,0.00,meteohub,2013-11-18 09:33:00,
2013-11-18 03:38:00,29.5,22.3,29.85,NW,315,23.0,25.0,74,0.00,,,0.00,meteohub,2013-11-18 09:38:00,
2013-11-18 03:43:00,29.5,22.3,29.86,NW,315,18.0,25.0,74,0.00,,,0.00,meteohub,2013-11-18 09:43:00,
2013-11-18 03:48:00,29.5,22.3,29.86,NW,315,22.0,25.0,74,0.00,,,0.00,meteohub,2013-11-18 09:48:00,
2013-11-18 03:53:00,29.5,22.3,29.86,West,270,21.0,23.0,74,0.00,,,0.00,meteohub,2013-11-18 09:53:00,
2013-11-18 03:58:00,29.5,22.3,29.86,NW,315,21.0,22.0,74,0.00,,,0.00,meteohub,2013-11-18 09:58:00,
2013-11-18 04:03:00,29.7,22.5,29.86,West,270,26.0,26.0,74,0.00,,,0.00,meteohub,2013-11-18 10:03:00,
2013-11-18 04:08:00,29.8,22.6,29.87,NW,315,27.0,27.0,74,0.00,,,0.00,meteohub,2013-11-18 10:08:00,
2013-11-18 04:13:00,30.0,22.5,29.87,West,270,27.0,27.0,73,0.00,,,0.00,meteohub,2013-11-18 10:13:00,
2013-11-18 04:18:00,30.2,22.3,29.88,NW,315,25.0,28.0,72,0.00,,,0.00,meteohub,2013-11-18 10:18:00,
2013-11-18 04:24:00,30.2,22.3,29.87,NW,315,30.0,30.0,72,0.00,,,0.00,meteohub,2013-11-18 10:24:00,
2013-11-18 04:29:00,30.2,22.3,29.87,NW,315,32.0,32.0,72,0.00,,,0.00,meteohub,2013-11-18 10:29:00,
2013-11-18 04:34:00,30.2,21.9,29.88,NW,315,36.0,36.0,71,0.00,,,0.00,meteohub,2013-11-18 10:34:00,
2013-11-18 04:39:00,30.0,22.1,29.88,West,270,27.0,36.0,72,0.00,,,0.00,meteohub,2013-11-18 10:39:00,
2013-11-18 04:44:00,29.7,21.7,29.89,West,270,22.0,36.0,72,0.00,,,0.00,meteohub,2013-11-18 10:44:00,
2013-11-18 04:49:00,29.3,21.4,29.88,West,270,30.0,36.0,72,0.00,,,0.00,meteohub,2013-11-18 10:49:00,
2013-11-18 04:54:00,29.1,21.6,29.89,NW,315,19.0,30.0,73,0.00,,,0.00,meteohub,2013-11-18 10:54:00,
2013-11-18 04:59:00,28.9,21.4,29.89,NW,315,27.0,30.0,73,0.00,,,0.00,meteohub,2013-11-18 10:59:00,
2013-11-18 05:04:00,28.9,21.4,29.89,West,270,22.0,30.0,73,0.00,,,0.00,meteohub,2013-11-18 11:04:00,
2013-11-18 05:10:00,28.8,20.8,29.90,NW,315,24.0,29.0,72,0.00,,,0.00,meteohub,2013-11-18 11:10:00,
2013-11-18 05:15:00,28.4,20.5,29.89,West,270,23.0,29.0,72,0.00,,,0.00,meteohub,2013-11-18 11:15:00,
2013-11-18 05:20:00,28.2,19.0,29.90,NW,315,18.0,27.0,68,0.00,,,0.00,meteohub,2013-11-18 11:20:00,
2013-11-18 05:25:00,27.9,18.7,29.90,West,270,19.0,27.0,68,0.00,,,0.00,meteohub,2013-11-18 11:25:00,
2013-11-18 05:30:00,27.9,18.7,29.90,NW,315,18.0,27.0,68,0.00,,,0.00,meteohub,2013-11-18 11:30:00,
2013-11-18 05:35:00,27.7,18.9,29.90,NW,315,22.0,26.0,69,0.00,,,0.00,meteohub,2013-11-18 11:35:00,
2013-11-18 05:40:00,27.5,18.7,29.90,West,270,21.0,25.0,69,0.00,,,0.00,meteohub,2013-11-18 11:40:00,
2013-11-18 05:45:00,27.3,18.5,29.90,NW,315,21.0,25.0,69,0.00,,,0.00,meteohub,2013-11-18 11:45:00,
2013-11-18 05:50:00,27.1,18.3,29.91,West,270,26.0,26.0,69,0.00,,,0.00,meteohub,2013-11-18 11:50:00,
2013-11-18 05:55:00,26.8,18.0,29.91,West,270,21.0,26.0,69,0.00,,,0.00,meteohub,2013-11-18 11:55:00,
2013-11-18 06:00:00,26.6,17.8,29.91,West,270,21.0,26.0,69,0.00,,,0.00,meteohub,2013-11-18 12:00:00,
2013-11-18 06:05:00,26.4,18.0,29.91,NW,315,20.0,26.0,70,0.00,,,0.00,meteohub,2013-11-18 12:05:00,
2013-11-18 06:10:00,26.4,18.0,29.91,NW,315,19.0,26.0,70,0.00,,,0.00,meteohub,2013-11-18 12:10:00,
2013-11-18 06:16:00,26.1,17.6,29.91,West,270,16.0,26.0,70,0.00,,,0.00,meteohub,2013-11-18 12:16:00,
2013-11-18 06:21:00,26.1,18.0,29.91,West,270,19.0,21.0,71,0.00,,,0.00,meteohub,2013-11-18 12:21:00,
2013-11-18 06:26:00,25.9,17.8,29.91,NW,315,21.0,21.0,71,0.00,,,0.00,meteohub,2013-11-18 12:26:00,
2013-11-18 06:31:00,25.9,17.8,29.92,NW,315,20.0,23.0,71,0.00,,,0.00,meteohub,2013-11-18 12:31:00,
2013-11-18 06:36:00,25.7,17.6,29.91,West,270,17.0,23.0,71,0.00,,,0.00,meteohub,2013-11-18 12:36:00,
2013-11-18 06:41:00,25.7,17.6,29.92,West,270,15.0,23.0,71,0.00,,,0.00,meteohub,2013-11-18 12:41:00,
2013-11-18 06:46:00,25.7,17.6,29.92,West,270,17.0,21.0,71,0.00,,,0.00,meteohub,2013-11-18 12:46:00,
2013-11-18 06:51:00,25.5,17.4,29.93,West,270,20.0,21.0,71,0.00,,,0.00,meteohub,2013-11-18 12:51:00,
2013-11-18 06:56:00,25.5,17.4,29.94,NW,315,19.0,21.0,71,0.00,,,0.00,meteohub,2013-11-18 12:56:00,
2013-11-18 07:02:00,25.3,17.2,29.94,West,270,20.0,21.0,71,0.00,,,0.00,meteohub,2013-11-18 13:02:00,
2013-11-18 07:07:00,25.2,17.1,29.94,NW,315,21.0,21.0,71,0.00,,,0.00,meteohub,2013-11-18 13:07:00,
2013-11-18 07:12:00,25.2,17.4,29.94,West,270,18.0,21.0,72,0.00,,,0.00,meteohub,2013-11-18 13:12:00,
2013-11-18 07:17:00,25.2,17.4,29.95,West,270,20.0,21.0,72,0.00,,,0.00,meteohub,2013-11-18 13:17:00,
2013-11-18 07:22:00,25.0,17.2,29.95,West,270,17.0,21.0,72,0.00,,,0.00,meteohub,2013-11-18 13:22:00,
2013-11-18 07:27:00,25.0,17.2,29.95,WNW,293,17.0,21.0,72,0.00,,,0.00,meteohub,2013-11-18 13:27:00,
2013-11-18 07:32:00,25.0,17.2,29.95,West,270,20.0,21.0,72,0.00,,,0.00,meteohub,2013-11-18 13:32:00,
2013-11-18 07:37:00,25.0,17.2,29.96,NW,315,17.0,21.0,72,0.00,,,0.00,meteohub,2013-11-18 13:37:00,
2013-11-18 07:42:00,25.0,17.2,29.96,NW,315,17.0,21.0,72,0.00,,,0.00,meteohub,2013-11-18 13:42:00,
2013-11-18 07:47:00,25.0,17.2,29.97,West,270,19.0,21.0,72,0.00,,,0.00,meteohub,2013-11-18 13:47:00,
2013-11-18 07:52:00,25.0,17.2,29.97,West,270,17.0,20.0,72,0.00,,,0.00,meteohub,2013-11-18 13:52:00,
2013-11-18 07:57:00,25.3,17.6,29.98,NW,315,13.0,21.0,72,0.00,,,0.00,meteohub,2013-11-18 13:57:00,
2013-11-18 08:03:00,25.9,18.5,29.97,NW,315,18.0,21.0,73,0.00,,,0.00,meteohub,2013-11-18 14:03:00,
2013-11-18 08:08:00,25.3,17.6,29.97,West,270,17.0,21.0,72,0.00,,,0.00,meteohub,2013-11-18 14:08:00,
2013-11-18 08:13:00,25.3,17.6,29.98,West,270,15.0,21.0,72,0.00,,,0.00,meteohub,2013-11-18 14:13:00,
2013-11-18 08:18:00,25.7,18.0,29.98,SW,225,17.0,21.0,72,0.00,,,0.00,meteohub,2013-11-18 14:18:00,
2013-11-18 08:23:00,25.7,18.0,29.99,NW,315,23.0,23.0,72,0.00,,,0.00,meteohub,2013-11-18 14:23:00,
2013-11-18 08:28:00,25.9,18.1,29.99,West,270,22.0,23.0,72,0.00,,,0.00,meteohub,2013-11-18 14:28:00,
2013-11-18 08:33:00,26.1,18.3,29.99,NW,315,25.0,25.0,72,0.00,,,0.00,meteohub,2013-11-18 14:33:00,
2013-11-18 08:39:00,26.2,18.5,30.00,NW,315,20.0,25.0,72,0.00,,,0.00,meteohub,2013-11-18 14:39:00,
2013-11-18 08:44:00,26.4,18.7,30.00,NW,315,22.0,27.0,72,0.00,,,0.00,meteohub,2013-11-18 14:44:00,
2013-11-18 08:49:00,26.8,18.7,30.00,NW,315,23.0,27.0,71,0.00,,,0.00,meteohub,2013-11-18 14:49:00,
2013-11-18 08:54:00,26.8,18.3,30.00,NW,315,24.0,26.0,70,0.00,,,0.00,meteohub,2013-11-18 14:54:00,
2013-11-18 08:59:00,26.8,18.3,30.01,NW,315,21.0,27.0,70,0.00,,,0.00,meteohub,2013-11-18 14:59:00,
2013-11-18 09:04:00,27.0,18.5,30.01,NW,315,24.0,27.0,70,0.00,,,0.00,meteohub,2013-11-18 15:04:00,
2013-11-18 09:09:00,27.3,18.9,30.01,NW,315,24.0,27.0,70,0.00,,,0.00,meteohub,2013-11-18 15:09:00,
2013-11-18 09:15:00,27.5,18.7,30.00,NW,315,21.0,25.0,69,0.00,,,0.00,meteohub,2013-11-18 15:15:00,
2013-11-18 09:20:00,27.7,18.9,30.02,NW,315,28.0,28.0,69,0.00,,,0.00,meteohub,2013-11-18 15:20:00,
2013-11-18 09:25:00,27.9,18.7,30.01,NW,315,27.0,28.0,68,0.00,,,0.00,meteohub,2013-11-18 15:25:00,
2013-11-18 09:30:00,28.0,18.9,30.01,NW,315,27.0,28.0,68,0.00,,,0.00,meteohub,2013-11-18 15:30:00,
2013-11-18 09:35:00,28.4,20.5,30.01,NW,315,22.0,28.0,72,0.00,,,0.00,meteohub,2013-11-18 15:35:00,
2013-11-18 09:40:00,28.4,20.1,30.02,NW,315,33.0,33.0,71,0.00,,,0.00,meteohub,2013-11-18 15:40:00,
2013-11-18 09:45:00,28.2,18.3,30.02,NW,315,27.0,33.0,66,0.00,,,0.00,meteohub,2013-11-18 15:45:00,
2013-11-18 09:50:00,29.1,20.8,30.02,NW,315,30.0,33.0,71,0.00,,,0.00,meteohub,2013-11-18 15:50:00,
2013-11-18 09:55:00,29.1,20.5,30.02,NW,315,31.0,33.0,70,0.00,,,0.00,meteohub,2013-11-18 15:55:00,
2013-11-18 10:00:00,29.3,20.5,30.04,NW,315,29.0,31.0,69,0.00,,,0.00,meteohub,2013-11-18 16:00:00,
2013-11-18 10:05:00,29.7,21.0,30.04,NW,315,29.0,31.0,70,0.00,,,0.00,meteohub,2013-11-18 16:05:00,
2013-11-18 10:10:00,29.7,20.7,30.03,NW,315,25.0,31.0,69,0.00,,,0.00,meteohub,2013-11-18 16:10:00,
2013-11-18 10:15:00,30.0,20.7,30.04,NW,315,28.0,31.0,68,0.00,,,0.00,meteohub,2013-11-18 16:15:00,
2013-11-18 10:21:00,30.4,20.7,30.01,NW,315,30.0,31.0,67,0.00,,,0.00,meteohub,2013-11-18 16:21:00,
2013-11-18 10:26:00,30.2,20.3,30.05,NW,315,23.0,33.0,66,0.00,,,0.00,meteohub,2013-11-18 16:26:00,
2013-11-18 10:31:00,30.4,20.3,30.05,NW,315,33.0,33.0,66,0.00,,,0.00,meteohub,2013-11-18 16:31:00,
2013-11-18 10:36:00,30.6,20.5,30.06,NW,315,22.0,33.0,66,0.00,,,0.00,meteohub,2013-11-18 16:36:00,
2013-11-18 10:41:00,30.9,21.2,30.06,NW,315,25.0,33.0,67,0.00,,,0.00,meteohub,2013-11-18 16:41:00,
2013-11-18 10:46:00,31.1,21.0,30.06,NW,315,29.0,33.0,66,0.00,,,0.00,meteohub,2013-11-18 16:46:00,
2013-11-18 10:52:00,31.3,21.2,30.07,North,0,29.0,29.0,66,0.00,,,0.00,meteohub,2013-11-18 16:52:00,
2013-11-18 10:57:00,30.2,19.9,30.06,NW,315,27.0,180.0,65,0.00,,,0.00,meteohub,2013-11-18 16:57:00,
2013-11-18 11:02:00,30.9,20.8,30.06,NW,315,24.0,180.0,66,0.00,,,0.00,meteohub,2013-11-18 17:02:00,
2013-11-18 11:07:00,30.9,20.5,30.06,NW,315,30.0,180.0,65,0.00,,,0.00,meteohub,2013-11-18 17:07:00,
2013-11-18 11:12:00,30.4,19.6,30.06,NW,315,24.0,33.0,64,0.00,,,0.00,meteohub,2013-11-18 17:12:00,
2013-11-18 11:17:00,31.1,20.7,30.06,NW,315,22.0,31.0,65,0.00,,,0.00,meteohub,2013-11-18 17:17:00,
2013-11-18 11:22:00,31.8,21.4,30.06,NW,315,26.0,30.0,65,0.00,,,0.00,meteohub,2013-11-18 17:22:00,
2013-11-18 11:27:00,31.8,21.0,30.06,NW,315,29.0,29.0,64,0.00,,,0.00,meteohub,2013-11-18 17:27:00,
2013-11-18 11:32:00,32.0,20.5,30.06,NW,315,27.0,29.0,62,0.00,,,0.00,meteohub,2013-11-18 17:32:00,
2013-11-18 11:38:00,31.6,20.5,30.06,NNW,338,23.0,29.0,63,0.00,,,0.00,meteohub,2013-11-18 17:38:00,
2013-11-18 11:43:00,32.0,20.5,30.05,North,0,24.0,29.0,62,0.00,,,0.00,meteohub,2013-11-18 17:43:00,
2013-11-18 11:48:00,32.7,21.2,30.06,NW,315,23.0,27.0,62,0.00,,,0.00,meteohub,2013-11-18 17:48:00,
2013-11-18 11:53:00,32.0,20.1,30.06,NW,315,21.0,27.0,61,0.00,,,0.00,meteohub,2013-11-18 17:53:00,
2013-11-18 11:58:00,32.0,20.1,30.05,NW,315,29.0,29.0,61,0.00,,,0.00,meteohub,2013-11-18 17:58:00,
2013-11-18 12:03:00,32.2,20.7,30.05,NW,315,21.0,29.0,62,0.00,,,0.00,meteohub,2013-11-18 18:03:00,
2013-11-18 12:08:00,32.0,20.1,30.05,NW,315,22.0,29.0,61,0.00,,,0.00,meteohub,2013-11-18 18:08:00,
2013-11-18 12:13:00,31.8,20.3,30.06,NW,315,24.0,29.0,62,0.00,,,0.00,meteohub,2013-11-18 18:13:00,
2013-11-18 12:18:00,32.4,20.8,30.05,NW,315,19.0,27.0,62,0.00,,,0.00,meteohub,2013-11-18 18:18:00,
2013-11-18 12:23:00,32.2,20.3,30.05,NW,315,16.0,27.0,61,0.00,,,0.00,meteohub,2013-11-18 18:23:00,
2013-11-18 12:28:00,32.4,20.5,30.05,North,0,19.0,27.0,61,0.00,,,0.00,meteohub,2013-11-18 18:28:00,
2013-11-18 12:33:00,32.2,20.3,30.05,NW,315,21.0,24.0,61,0.00,,,0.00,meteohub,2013-11-18 18:33:00,
2013-11-18 12:39:00,32.0,20.1,30.05,NW,315,17.0,25.0,61,0.00,,,0.00,meteohub,2013-11-18 18:39:00,
2013-11-18 12:44:00,32.7,20.8,30.05,NW,315,18.0,25.0,61,0.00,,,0.00,meteohub,2013-11-18 18:44:00,
2013-11-18 12:49:00,33.1,21.0,30.05,SW,225,22.0,25.0,61,0.00,,,0.00,meteohub,2013-11-18 18:49:00,
2013-11-18 12:54:00,33.3,20.8,30.05,West,270,17.0,23.0,60,0.00,,,0.00,meteohub,2013-11-18 18:54:00,
2013-11-18 12:59:00,33.4,21.0,30.05,NW,315,23.0,23.0,60,0.00,,,0.00,meteohub,2013-11-18 18:59:00,
2013-11-18 13:04:00,33.8,21.0,30.05,West,270,22.0,23.0,59,0.00,,,0.00,meteohub,2013-11-18 19:04:00,
2013-11-18 13:09:00,34.0,21.2,30.05,NW,315,21.0,25.0,59,0.00,,,0.00,meteohub,2013-11-18 19:09:00,
2013-11-18 13:14:00,34.2,21.4,30.05,NW,315,18.0,25.0,59,0.00,,,0.00,meteohub,2013-11-18 19:14:00,
2013-11-18 13:19:00,34.3,21.0,30.05,NW,315,21.0,23.0,58,0.00,,,0.00,meteohub,2013-11-18 19:19:00,
2013-11-18 13:24:00,34.0,19.9,30.05,West,270,16.0,22.0,56,0.00,,,0.00,meteohub,2013-11-18 19:24:00,
2013-11-18 13:29:00,34.3,20.7,30.05,NW,315,18.0,22.0,57,0.00,,,0.00,meteohub,2013-11-18 19:29:00,
2013-11-18 13:34:00,34.7,21.0,30.05,West,270,15.0,22.0,57,0.00,,,0.00,meteohub,2013-11-18 19:34:00,
2013-11-18 13:39:00,34.9,20.8,30.05,NW,315,19.0,21.0,56,0.00,,,0.00,meteohub,2013-11-18 19:39:00,
2013-11-18 13:45:00,34.7,20.1,30.05,NW,315,15.0,21.0,55,0.00,,,0.00,meteohub,2013-11-18 19:45:00,
2013-11-18 13:50:00,35.2,21.2,30.05,NW,315,18.0,21.0,56,0.00,,,0.00,meteohub,2013-11-18 19:50:00,
2013-11-18 13:55:00,35.8,20.8,30.06,NW,315,15.0,21.0,54,0.00,,,0.00,meteohub,2013-11-18 19:55:00,
2013-11-18 14:00:00,35.2,20.3,30.05,West,270,14.0,20.0,54,0.00,,,0.00,meteohub,2013-11-18 20:00:00,
2013-11-18 14:05:00,35.4,20.5,30.05,NW,315,21.0,21.0,54,0.00,,,0.00,meteohub,2013-11-18 20:05:00,
2013-11-18 14:10:00,35.8,20.3,30.05,NW,315,18.0,21.0,53,0.00,,,0.00,meteohub,2013-11-18 20:10:00,
2013-11-18 14:15:00,36.1,20.7,30.05,NW,315,15.0,21.0,53,0.00,,,0.00,meteohub,2013-11-18 20:15:00,
2013-11-18 14:20:00,36.3,20.8,30.06,NW,315,17.0,21.0,53,0.00,,,0.00,meteohub,2013-11-18 20:20:00,
2013-11-18 14:25:00,35.8,19.9,30.05,NW,315,15.0,20.0,52,0.00,,,0.00,meteohub,2013-11-18 20:25:00,
2013-11-18 14:30:00,35.8,19.9,30.05,NW,315,17.0,20.0,52,0.00,,,0.00,meteohub,2013-11-18 20:30:00,
2013-11-18 14:36:00,35.8,19.9,30.06,NW,315,15.0,20.0,52,0.00,,,0.00,meteohub,2013-11-18 20:36:00,
2013-11-18 14:41:00,36.0,20.5,30.05,NW,315,13.0,19.0,53,0.00,,,0.00,meteohub,2013-11-18 20:41:00,
2013-11-18 14:46:00,36.0,20.5,30.05,NW,315,15.0,19.0,53,0.00,,,0.00,meteohub,2013-11-18 20:46:00,
2013-11-18 14:51:00,36.0,20.1,30.05,NW,315,18.0,18.0,52,0.00,,,0.00,meteohub,2013-11-18 20:51:00,
2013-11-18 14:56:00,35.8,19.9,30.06,NW,315,15.0,18.0,52,0.00,,,0.00,meteohub,2013-11-18 20:56:00,
2013-11-18 15:01:00,36.1,20.3,30.06,NW,315,14.0,18.0,52,0.00,,,0.00,meteohub,2013-11-18 21:01:00,
2013-11-18 15:06:00,36.3,20.3,30.05,NW,315,11.0,18.0,52,0.00,,,0.00,meteohub,2013-11-18 21:06:00,
2013-11-18 15:11:00,36.5,20.5,30.05,NW,315,15.0,15.0,52,0.00,,,0.00,meteohub,2013-11-18 21:11:00,
2013-11-18 15:16:00,36.3,19.9,30.04,WNW,293,11.0,15.0,51,0.00,,,0.00,meteohub,2013-11-18 21:16:00,
2013-11-18 15:21:00,37.0,21.0,30.05,NW,315,13.0,16.0,52,0.00,,,0.00,meteohub,2013-11-18 21:21:00,
2013-11-18 15:26:00,37.4,23.2,30.05,North,0,11.0,16.0,56,0.00,,,0.00,meteohub,2013-11-18 21:26:00,
2013-11-18 15:31:00,37.6,22.8,30.05,NW,315,12.0,16.0,55,0.00,,,0.00,meteohub,2013-11-18 21:31:00,
2013-11-18 15:37:00,37.9,22.8,30.05,NW,315,12.0,16.0,54,0.00,,,0.00,meteohub,2013-11-18 21:37:00,
2013-11-18 15:42:00,37.8,22.6,30.05,NW,315,11.0,14.0,54,0.00,,,0.00,meteohub,2013-11-18 21:42:00,
2013-11-18 15:47:00,37.2,20.3,30.05,NW,315,11.0,14.0,50,0.00,,,0.00,meteohub,2013-11-18 21:47:00,
2013-11-18 15:52:00,37.4,22.6,30.05,NW,315,12.0,12.0,55,0.00,,,0.00,meteohub,2013-11-18 21:52:00,
2013-11-18 15:57:00,37.0,20.1,30.05,North,0,11.0,12.0,50,0.00,,,0.00,meteohub,2013-11-18 21:57:00,
2013-11-18 16:02:00,36.7,20.3,30.06,NW,315,9.0,12.0,51,0.00,,,0.00,meteohub,2013-11-18 22:02:00,
2013-11-18 16:07:00,36.7,20.3,30.06,NW,315,11.0,12.0,51,0.00,,,0.00,meteohub,2013-11-18 22:07:00,
2013-11-18 16:12:00,36.3,19.9,30.06,NW,315,10.0,12.0,51,0.00,,,0.00,meteohub,2013-11-18 22:12:00,
2013-11-18 16:17:00,36.1,20.3,30.06,NW,315,9.0,11.0,52,0.00,,,0.00,meteohub,2013-11-18 22:17:00,
2013-11-18 16:22:00,36.7,20.7,30.06,NW,315,8.0,11.0,52,0.00,,,0.00,meteohub,2013-11-18 22:22:00,
2013-11-18 16:27:00,36.0,20.1,30.06,NW,315,4.0,10.0,52,0.00,,,0.00,meteohub,2013-11-18 22:27:00,
2013-11-18 16:32:00,36.1,20.7,30.06,NW,315,7.0,9.0,53,0.00,,,0.00,meteohub,2013-11-18 22:32:00,
2013-11-18 16:38:00,35.8,20.3,30.06,West,270,4.0,8.0,53,0.00,,,0.00,meteohub,2013-11-18 22:38:00,
2013-11-18 16:43:00,35.1,20.1,30.06,NW,315,6.0,7.0,54,0.00,,,0.00,meteohub,2013-11-18 22:43:00,
2013-11-18 16:48:00,34.5,19.9,30.06,North,0,5.0,7.0,55,0.00,,,0.00,meteohub,2013-11-18 22:48:00,
2013-11-18 16:53:00,33.8,19.8,30.06,North,0,5.0,7.0,56,0.00,,,0.00,meteohub,2013-11-18 22:53:00,
2013-11-18 16:58:00,33.4,20.3,30.06,NW,315,4.0,7.0,58,0.00,,,0.00,meteohub,2013-11-18 22:58:00,
2013-11-18 17:03:00,33.1,20.3,30.06,North,0,5.0,7.0,59,0.00,,,0.00,meteohub,2013-11-18 23:03:00,
2013-11-18 17:08:00,32.5,20.1,30.06,North,0,4.0,6.0,60,0.00,,,0.00,meteohub,2013-11-18 23:08:00,
2013-11-18 17:13:00,32.0,19.8,30.06,NE,45,3.0,6.0,60,0.00,,,0.00,meteohub,2013-11-18 23:13:00,
2013-11-18 17:18:00,31.6,19.8,30.06,North,0,3.0,6.0,61,0.00,,,0.00,meteohub,2013-11-18 23:18:00,
2013-11-18 17:23:00,31.3,19.4,30.06,North,0,3.0,4.0,61,0.00,,,0.00,meteohub,2013-11-18 23:23:00,
2013-11-18 17:28:00,31.1,19.2,30.06,North,0,3.0,4.0,61,0.00,,,0.00,meteohub,2013-11-18 23:28:00,
2013-11-18 17:33:00,31.1,19.6,30.06,North,0,3.0,4.0,62,0.00,,,0.00,meteohub,2013-11-18 23:33:00,
2013-11-18 17:38:00,31.3,19.8,30.07,NE,45,2.0,4.0,62,0.00,,,0.00,meteohub,2013-11-18 23:38:00,
2013-11-18 17:43:00,31.1,19.6,30.07,East,90,2.0,3.0,62,0.00,,,0.00,meteohub,2013-11-18 23:43:00,
2013-11-18 17:48:00,30.6,19.0,30.07,NE,45,5.0,5.0,62,0.00,,,0.00,meteohub,2013-11-18 23:48:00,
2013-11-18 17:54:00,29.8,18.9,30.07,NE,45,6.0,6.0,63,0.00,,,0.00,meteohub,2013-11-18 23:54:00,
2013-11-18 17:59:00,29.5,18.5,30.07,East,90,4.0,6.0,63,0.00,,,0.00,meteohub,2013-11-18 23:59:00,
2013-11-18 18:04:00,28.9,18.0,30.07,NE,45,4.0,6.0,63,0.00,,,0.00,meteohub,2013-11-19 00:04:00,
2013-11-18 18:09:00,29.3,18.7,30.07,NE,45,5.0,6.0,64,0.00,,,0.00,meteohub,2013-11-19 00:09:00,
2013-11-18 18:14:00,29.5,19.2,30.07,NE,45,6.0,6.0,65,0.00,,,0.00,meteohub,2013-11-19 00:14:00,
2013-11-18 18:19:00,29.3,19.4,30.07,NE,45,8.0,8.0,66,0.00,,,0.00,meteohub,2013-11-19 00:19:00,
2013-11-18 18:24:00,29.3,19.4,30.08,NE,45,7.0,8.0,66,0.00,,,0.00,meteohub,2013-11-19 00:24:00,
2013-11-18 18:29:00,28.8,18.9,30.08,NE,45,8.0,8.0,66,0.00,,,0.00,meteohub,2013-11-19 00:29:00,
2013-11-18 18:34:00,28.2,16.9,30.08,NE,45,6.0,8.0,62,0.00,,,0.00,meteohub,2013-11-19 00:34:00,
2013-11-18 18:39:00,27.9,16.5,30.07,ESE,113,3.0,8.0,62,0.00,,,0.00,meteohub,2013-11-19 00:39:00,
2013-11-18 18:44:00,27.0,15.3,30.07,ENE,68,3.0,8.0,61,0.00,,,0.00,meteohub,2013-11-19 00:44:00,
2013-11-18 18:49:00,26.4,15.1,30.08,ENE,68,3.0,7.0,62,0.00,,,0.00,meteohub,2013-11-19 00:49:00,
2013-11-18 18:54:00,26.1,14.9,30.08,East,90,3.0,6.0,62,0.00,,,0.00,meteohub,2013-11-19 00:54:00,
2013-11-18 19:00:00,26.2,15.4,30.07,NE,45,4.0,4.0,63,0.00,,,0.00,meteohub,2013-11-19 01:00:00,
2013-11-18 19:05:00,26.6,15.6,30.08,ENE,68,4.0,5.0,63,0.00,,,0.00,meteohub,2013-11-19 01:05:00,
2013-11-18 19:10:00,26.4,16.0,30.08,East,90,3.0,5.0,64,0.00,,,0.00,meteohub,2013-11-19 01:10:00,
2013-11-18 19:15:00,25.9,15.4,30.08,SE,135,3.0,5.0,64,0.00,,,0.00,meteohub,2013-11-19 01:15:00,
2013-11-18 19:20:00,26.2,15.8,30.07,NE,45,5.0,5.0,64,0.00,,,0.00,meteohub,2013-11-19 01:20:00,
2013-11-18 19:25:00,27.0,16.3,30.08,East,90,4.0,5.0,64,0.00,,,0.00,meteohub,2013-11-19 01:25:00,
2013-11-18 19:30:00,26.6,15.6,30.07,ENE,68,4.0,5.0,63,0.00,,,0.00,meteohub,2013-11-19 01:30:00,
2013-11-18 19:35:00,26.6,16.0,30.07,NE,45,5.0,5.0,64,0.00,,,0.00,meteohub,2013-11-19 01:35:00,
2013-11-18 19:40:00,27.0,16.3,30.08,East,90,4.0,5.0,64,0.00,,,0.00,meteohub,2013-11-19 01:40:00,
2013-11-18 19:45:00,26.4,16.0,30.07,NE,45,5.0,5.0,64,0.00,,,0.00,meteohub,2013-11-19 01:45:00,
2013-11-18 19:46:00,26.2,15.8,30.08,ENE,68,6.0,6.0,64,0.00,,,0.00,meteohub,2013-11-19 01:46:00,
2013-11-18 19:51:00,26.1,16.0,30.07,East,90,5.0,6.0,65,0.00,,,0.00,meteohub,2013-11-19 01:51:00,
2013-11-18 19:56:00,25.9,15.8,30.07,ENE,68,5.0,6.0,65,0.00,,,0.00,meteohub,2013-11-19 01:56:00,
2013-11-18 20:01:00,25.5,15.4,30.06,SE,135,5.0,6.0,65,0.00,,,0.00,meteohub,2013-11-19 02:01:00,
2013-11-18 20:06:00,25.2,15.1,30.07,ESE,113,4.0,6.0,65,0.00,,,0.00,meteohub,2013-11-19 02:06:00,
2013-11-18 20:11:00,24.8,14.7,30.07,East,90,4.0,6.0,65,0.00,,,0.00,meteohub,2013-11-19 02:11:00,
2013-11-18 20:16:00,25.0,15.3,30.08,SE,135,5.0,5.0,66,0.00,,,0.00,meteohub,2013-11-19 02:16:00,
2013-11-18 20:21:00,25.3,15.6,30.07,East,90,5.0,6.0,66,0.00,,,0.00,meteohub,2013-11-19 02:21:00,
2013-11-18 20:26:00,25.2,15.4,30.07,ESE,113,4.0,6.0,66,0.00,,,0.00,meteohub,2013-11-19 02:26:00,
2013-11-18 20:31:00,24.8,14.7,30.06,SE,135,4.0,6.0,65,0.00,,,0.00,meteohub,2013-11-19 02:31:00,
2013-11-18 20:36:00,24.8,14.7,30.06,SE,135,4.0,5.0,65,0.00,,,0.00,meteohub,2013-11-19 02:36:00,
2013-11-18 20:41:00,24.8,15.1,30.06,East,90,5.0,5.0,66,0.00,,,0.00,meteohub,2013-11-19 02:41:00,
2013-11-18 20:47:00,24.6,14.9,30.06,SE,135,6.0,6.0,66,0.00,,,0.00,meteohub,2013-11-19 02:47:00,
2013-11-18 20:52:00,24.4,14.7,30.06,SE,135,4.0,6.0,66,0.00,,,0.00,meteohub,2013-11-19 02:52:00,
2013-11-18 20:57:00,24.6,15.3,30.07,SE,135,5.0,6.0,67,0.00,,,0.00,meteohub,2013-11-19 02:57:00,
2013-11-18 21:02:00,24.4,15.1,30.07,South,180,6.0,6.0,67,0.00,,,0.00,meteohub,2013-11-19 03:02:00,
2013-11-18 21:07:00,23.7,14.0,30.08,South,180,7.0,7.0,66,0.00,,,0.00,meteohub,2013-11-19 03:07:00,
2013-11-18 21:12:00,23.0,13.3,30.08,South,180,4.0,8.0,66,0.00,,,0.00,meteohub,2013-11-19 03:12:00,
2013-11-18 21:17:00,22.3,12.7,30.09,South,180,4.0,8.0,66,0.00,,,0.00,meteohub,2013-11-19 03:17:00,
2013-11-18 21:22:00,21.9,12.4,30.09,SE,135,4.0,8.0,66,0.00,,,0.00,meteohub,2013-11-19 03:22:00,
2013-11-18 21:27:00,21.6,12.0,30.08,SE,135,5.0,7.0,66,0.00,,,0.00,meteohub,2013-11-19 03:27:00,
2013-11-18 21:32:00,21.6,12.4,30.08,SE,135,5.0,5.0,67,0.00,,,0.00,meteohub,2013-11-19 03:32:00,
2013-11-18 21:37:00,21.9,12.6,30.08,SE,135,6.0,6.0,67,0.00,,,0.00,meteohub,2013-11-19 03:37:00,
2013-11-18 21:42:00,22.3,13.3,30.07,SE,135,6.0,6.0,68,0.00,,,0.00,meteohub,2013-11-19 03:42:00,
2013-11-18 21:47:00,22.6,13.6,30.07,SE,135,6.0,7.0,68,0.00,,,0.00,meteohub,2013-11-19 03:47:00,
2013-11-18 21:52:00,22.6,14.0,30.08,SE,135,6.0,7.0,69,0.00,,,0.00,meteohub,2013-11-19 03:52:00,
2013-11-18 21:58:00,23.0,14.0,30.08,SE,135,6.0,7.0,68,0.00,,,0.00,meteohub,2013-11-19 03:58:00,
2013-11-18 22:03:00,22.1,13.1,30.08,South,180,6.0,7.0,68,0.00,,,0.00,meteohub,2013-11-19 04:03:00,
2013-11-18 22:08:00,21.4,12.4,30.09,South,180,4.0,7.0,68,0.00,,,0.00,meteohub,2013-11-19 04:08:00,
2013-11-18 22:12:00,20.8,12.2,30.08,SE,135,4.0,6.0,69,0.00,,,0.00,meteohub,2013-11-19 04:12:00,
2013-11-18 22:18:00,20.8,12.2,30.07,SE,135,4.0,6.0,69,0.00,,,0.00,meteohub,2013-11-19 04:18:00,
2013-11-18 22:23:00,20.8,12.2,30.08,SE,135,5.0,6.0,69,0.00,,,0.00,meteohub,2013-11-19 04:23:00,
2013-11-18 22:28:00,20.8,12.6,30.08,SE,135,4.0,6.0,70,0.00,,,0.00,meteohub,2013-11-19 04:28:00,
2013-11-18 22:33:00,20.8,12.6,30.07,SE,135,7.0,7.0,70,0.00,,,0.00,meteohub,2013-11-19 04:33:00,
2013-11-18 22:39:00,21.0,12.7,30.07,SE,135,7.0,7.0,70,0.00,,,0.00,meteohub,2013-11-19 04:39:00,
2013-11-18 22:44:00,21.2,12.9,30.07,SE,135,7.0,8.0,70,0.00,,,0.00,meteohub,2013-11-19 04:44:00,
2013-11-18 22:49:00,21.4,13.1,30.07,SE,135,7.0,8.0,70,0.00,,,0.00,meteohub,2013-11-19 04:49:00,
2013-11-18 22:55:00,21.7,13.8,30.07,SE,135,8.0,8.0,71,0.00,,,0.00,meteohub,2013-11-19 04:55:00,
2013-11-18 23:00:00,21.9,14.0,30.07,SE,135,8.0,8.0,71,0.00,,,0.00,meteohub,2013-11-19 05:00:00,
2013-11-18 23:01:00,21.9,14.0,30.08,SE,135,8.0,8.0,71,0.00,,,0.00,meteohub,2013-11-19 05:01:00,
2013-11-18 23:02:00,21.9,14.0,30.08,SE,135,8.0,8.0,71,0.00,,,0.00,meteohub,2013-11-19 05:02:00,
2013-11-18 23:04:00,21.9,14.0,30.07,SE,135,10.0,10.0,71,0.00,,,0.00,meteohub,2013-11-19 05:04:00,
2013-11-18 23:08:00,22.5,14.5,30.08,SE,135,10.0,10.0,71,0.00,,,0.00,meteohub,2013-11-19 05:08:00,
2013-11-18 23:14:00,22.8,14.9,30.07,SE,135,10.0,11.0,71,0.00,,,0.00,meteohub,2013-11-19 05:14:00,
2013-11-18 23:19:00,23.0,15.1,30.08,SE,135,9.0,11.0,71,0.00,,,0.00,meteohub,2013-11-19 05:19:00,
2013-11-18 23:24:00,23.0,15.1,30.07,SE,135,10.0,11.0,71,0.00,,,0.00,meteohub,2013-11-19 05:24:00,
2013-11-18 23:29:00,23.2,15.3,30.07,SE,135,11.0,11.0,71,0.00,,,0.00,meteohub,2013-11-19 05:29:00,
2013-11-18 23:34:00,23.2,15.3,30.07,SE,135,10.0,11.0,71,0.00,,,0.00,meteohub,2013-11-19 05:34:00,
2013-11-18 23:39:00,23.2,15.3,30.07,SE,135,10.0,11.0,71,0.00,,,0.00,meteohub,2013-11-19 05:39:00,
2013-11-18 23:44:00,23.0,15.1,30.06,SE,135,10.0,11.0,71,0.00,,,0.00,meteohub,2013-11-19 05:44:00,
2013-11-18 23:49:00,23.2,15.3,30.07,SE,135,11.0,11.0,71,0.00,,,0.00,meteohub,2013-11-19 05:49:00,
2013-11-18 23:54:00,23.0,15.1,30.06,SE,135,8.0,11.0,71,0.00,,,0.00,meteohub,2013-11-19 05:54:00,
2013-11-18 23:59:00,22.3,14.7,30.06,SE,135,8.0,11.0,72,0.00,,,0.00,meteohub,2013-11-19 05:59:00,